LRI297 LFST-EDDM

Flight info

Callsign LRI297
Flight time 0h 39m
Altitude 19000
Route SUL Y710 ESULI/N0379F220 Y710 SUDEN/N0354F170 Z79 GUPIN L173 RIXED Y161 RIDAR Z98 WLD T104 ROKIL ROKIL1B
Aircraft A20N/M-SDE2E3FGHIRWXY/LB1

Departure

Time 2026-05-04 05:31
Airport Strasbourg Airport (LFST)

Arrival

Time 2026-05-04 06:11
Airport Munich Airport (EDDM)
Time Latitude Longitude Altitude Speed Heading
2026-05-04 04:58 48.54394 7.62824 510 ft 0 kts 317°
2026-05-04 05:17 48.54390 7.62829 509 ft 2 kts 317°
2026-05-04 05:18 48.54378 7.62845 509 ft 2 kts 317°
2026-05-04 05:18 48.54366 7.62861 509 ft 2 kts 317°
2026-05-04 05:18 48.54355 7.62877 508 ft 2 kts 317°
2026-05-04 05:18 48.54342 7.62888 508 ft 2 kts 354°
2026-05-04 05:19 48.54326 7.62885 508 ft 2 kts 27°
2026-05-04 05:19 48.54319 7.62877 508 ft 1 kts 47°
2026-05-04 05:19 48.54315 7.62870 508 ft 0 kts 47°
2026-05-04 05:19 48.54314 7.62870 508 ft 0 kts 47°
2026-05-04 05:20 48.54315 7.62870 508 ft 0 kts 47°
2026-05-04 05:24 48.54322 7.62883 508 ft 3 kts 49°
2026-05-04 05:24 48.54341 7.62916 508 ft 5 kts 48°
2026-05-04 05:24 48.54372 7.62972 507 ft 9 kts 55°
2026-05-04 05:25 48.54366 7.63079 504 ft 14 kts 126°
2026-05-04 05:25 48.54309 7.63217 499 ft 17 kts 84°
2026-05-04 05:25 48.54376 7.63370 497 ft 18 kts 47°
2026-05-04 05:25 48.54466 7.63519 493 ft 20 kts 48°
2026-05-04 05:26 48.54566 7.63687 489 ft 22 kts 47°
2026-05-04 05:26 48.54641 7.63833 486 ft 13 kts 78°
2026-05-04 05:26 48.54641 7.63855 486 ft 0 kts 94°
2026-05-04 05:28 48.54476 7.63926 487 ft 0 kts 227°
2026-05-04 05:29 48.54453 7.63888 488 ft 27 kts 227°
2026-05-04 05:29 48.54145 7.63358 497 ft 103 kts 227°
2026-05-04 05:29 48.53525 7.62290 513 ft 162 kts 229°
2026-05-04 05:31 48.47536 7.51948 4557 ft 244 kts 229°
2026-05-04 05:31 48.46208 7.50181 5142 ft 263 kts 206°
2026-05-04 05:32 48.44409 7.49662 6013 ft 272 kts 175°
2026-05-04 05:32 48.42632 7.50612 6916 ft 279 kts 146°
2026-05-04 05:32 48.41369 7.52847 7633 ft 286 kts 117°
2026-05-04 05:33 48.41299 7.58861 8020 ft 289 kts 75°
2026-05-04 05:33 48.41854 7.61870 8019 ft 289 kts 75°
2026-05-04 05:33 48.42367 7.64928 8016 ft 289 kts 77°
2026-05-04 05:33 48.42803 7.67924 8016 ft 289 kts 79°
2026-05-04 05:34 48.43207 7.70992 8018 ft 289 kts 82°
2026-05-04 05:34 48.43411 7.74089 8020 ft 288 kts 90°
2026-05-04 05:34 48.43332 7.77138 8329 ft 296 kts 96°
2026-05-04 05:34 48.43164 7.80208 9322 ft 296 kts 97°
2026-05-04 05:35 48.42987 7.83272 10355 ft 294 kts 97°
2026-05-04 05:35 48.42804 7.86397 10998 ft 307 kts 97°
2026-05-04 05:35 48.42609 7.89726 11462 ft 326 kts 97°
2026-05-04 05:35 48.42406 7.93200 11880 ft 344 kts 97°
2026-05-04 05:36 48.42193 7.96915 12203 ft 363 kts 97°
2026-05-04 05:36 48.41964 8.00915 12528 ft 380 kts 97°
2026-05-04 05:36 48.41727 8.05055 13186 ft 388 kts 97°
2026-05-04 05:36 48.41493 8.09169 13928 ft 392 kts 97°
2026-05-04 05:37 48.41250 8.13363 14666 ft 396 kts 97°
2026-05-04 05:37 48.41008 8.17521 15351 ft 401 kts 97°
2026-05-04 05:37 48.40751 8.21914 16051 ft 405 kts 97°
2026-05-04 05:38 48.40233 8.30619 17374 ft 414 kts 97°
2026-05-04 05:38 48.39967 8.35066 18018 ft 418 kts 97°
2026-05-04 05:38 48.39704 8.39427 18613 ft 422 kts 97°
2026-05-04 05:38 48.39433 8.43888 18967 ft 425 kts 97°
2026-05-04 05:39 48.39158 8.48388 19033 ft 426 kts 97°
2026-05-04 05:39 48.38612 8.57245 19039 ft 425 kts 97°
2026-05-04 05:39 48.38403 8.61694 19032 ft 425 kts 93°
2026-05-04 05:40 48.38708 8.70707 19033 ft 428 kts 84°
2026-05-04 05:40 48.39110 8.75168 19035 ft 428 kts 84°
2026-05-04 05:40 48.39542 8.79734 19034 ft 427 kts 83°
2026-05-04 05:41 48.39968 8.84257 19032 ft 427 kts 83°
2026-05-04 05:41 48.40389 8.88806 19032 ft 427 kts 84°
2026-05-04 05:41 48.40817 8.93485 19030 ft 427 kts 84°
2026-05-04 05:41 48.41231 8.98064 19032 ft 427 kts 84°
2026-05-04 05:42 48.41639 9.02620 19029 ft 426 kts 84°
2026-05-04 05:42 48.42044 9.07163 19029 ft 427 kts 84°
2026-05-04 05:42 48.42442 9.11646 19028 ft 427 kts 84°
2026-05-04 05:42 48.42835 9.16091 19028 ft 427 kts 84°
2026-05-04 05:43 48.43388 9.20517 19087 ft 432 kts 76°
2026-05-04 05:43 48.44406 9.24795 19703 ft 435 kts 66°
2026-05-04 05:43 48.45828 9.28821 20532 ft 433 kts 60°
2026-05-04 05:45 48.60668 9.52589 22035 ft 439 kts 26°
2026-05-04 05:45 48.63388 9.54716 22032 ft 439 kts 26°
2026-05-04 05:47 48.82594 9.70181 22024 ft 439 kts 28°
2026-05-04 05:47 48.85129 9.72956 22004 ft 441 kts 46°
2026-05-04 05:47 48.86874 9.76822 22018 ft 440 kts 66°
2026-05-04 05:48 48.87681 9.81348 22024 ft 437 kts 86°
2026-05-04 05:48 48.87550 9.86045 22035 ft 434 kts 99°
2026-05-04 05:48 48.87137 9.90719 22031 ft 434 kts 99°
2026-05-04 05:48 48.86725 9.95297 22030 ft 434 kts 99°
2026-05-04 05:49 48.86331 9.99885 22028 ft 434 kts 99°
2026-05-04 05:49 48.85955 10.04503 22027 ft 434 kts 98°
2026-05-04 05:49 48.85579 10.09229 22026 ft 434 kts 98°
2026-05-04 05:49 48.85212 10.13879 22026 ft 434 kts 98°
2026-05-04 05:51 48.80850 10.45221 22024 ft 425 kts 129°
2026-05-04 05:51 48.78883 10.48560 22031 ft 424 kts 135°
2026-05-04 05:52 48.76820 10.51795 22029 ft 424 kts 136°
2026-05-04 05:52 48.74713 10.55089 21898 ft 424 kts 135°
2026-05-04 05:52 48.72625 10.58391 21540 ft 421 kts 135°
2026-05-04 05:52 48.70514 10.61748 21087 ft 418 kts 135°
2026-05-04 05:53 48.68498 10.64956 20582 ft 415 kts 135°
2026-05-04 05:54 48.58493 10.90074 16684 ft 401 kts 93°
2026-05-04 05:55 48.58417 10.94426 16127 ft 399 kts 93°
2026-05-04 05:55 48.58330 10.98722 15556 ft 396 kts 93°
2026-05-04 05:55 48.58226 11.02905 15001 ft 394 kts 94°
2026-05-04 05:55 48.58111 11.07119 14447 ft 391 kts 94°
2026-05-04 05:56 48.57701 11.11265 13843 ft 385 kts 112°
2026-05-04 05:56 48.56302 11.14627 13469 ft 369 kts 137°
2026-05-04 05:56 48.54276 11.16916 13257 ft 352 kts 149°
2026-05-04 05:56 48.52415 11.19313 13016 ft 345 kts 129°
2026-05-04 05:57 48.51471 11.22673 12923 ft 347 kts 99°
2026-05-04 05:57 48.51649 11.26386 12968 ft 353 kts 77°
2026-05-04 05:57 48.52356 11.29986 12996 ft 354 kts 73°
2026-05-04 05:57 48.53087 11.33586 13018 ft 354 kts 74°
2026-05-04 05:58 48.53752 11.37266 13028 ft 354 kts 76°
2026-05-04 05:58 48.54344 11.40961 13035 ft 354 kts 77°
2026-05-04 05:58 48.54889 11.44629 13033 ft 354 kts 78°
2026-05-04 05:58 48.55425 11.48385 12907 ft 355 kts 78°
2026-05-04 05:59 48.55962 11.52202 12364 ft 355 kts 78°
2026-05-04 05:59 48.56473 11.55842 11885 ft 352 kts 79°
2026-05-04 05:59 48.56724 11.59529 11427 ft 346 kts 94°
2026-05-04 05:59 48.56323 11.63096 10991 ft 339 kts 108°
2026-05-04 06:00 48.55572 11.66465 10566 ft 335 kts 112°
2026-05-04 06:00 48.54792 11.69748 10346 ft 324 kts 112°
2026-05-04 06:00 48.54040 11.72909 10222 ft 311 kts 112°
2026-05-04 06:00 48.53326 11.75938 10096 ft 298 kts 112°
2026-05-04 06:01 48.52650 11.78832 9888 ft 290 kts 112°
2026-05-04 06:01 48.51974 11.81730 9528 ft 289 kts 111°
2026-05-04 06:03 48.47362 12.01569 7080 ft 276 kts 109°
2026-05-04 06:03 48.46715 12.04346 6742 ft 274 kts 109°
2026-05-04 06:05 48.39589 12.15457 5185 ft 225 kts 241°
2026-05-04 06:05 48.38830 12.11203 5189 ft 199 kts 268°
2026-05-04 06:05 48.38741 12.09174 4993 ft 192 kts 268°
2026-05-04 06:06 48.38640 12.07182 4740 ft 185 kts 268°
2026-05-04 06:06 48.38512 12.05236 4451 ft 174 kts 267°
2026-05-04 06:06 48.38379 12.03492 4206 ft 161 kts 267°
2026-05-04 06:06 48.38249 12.01884 3962 ft 147 kts 268°
2026-05-04 06:07 48.38129 12.00422 3760 ft 140 kts 268°
2026-05-04 06:07 48.38011 11.98954 3595 ft 140 kts 268°
2026-05-04 06:07 48.37892 11.97482 3426 ft 140 kts 268°
2026-05-04 06:07 48.37776 11.96033 3256 ft 139 kts 269°
2026-05-04 06:08 48.37660 11.94592 3082 ft 138 kts 268°
2026-05-04 06:08 48.37546 11.93156 2904 ft 137 kts 268°
2026-05-04 06:08 48.37434 11.91730 2721 ft 136 kts 267°
2026-05-04 06:08 48.37324 11.90325 2537 ft 134 kts 266°
2026-05-04 06:09 48.37215 11.88927 2353 ft 134 kts 266°
2026-05-04 06:09 48.37108 11.87548 2177 ft 132 kts 265°
2026-05-04 06:11 48.36442 11.79688 1457 ft 26 kts 236°
2026-05-04 06:11 48.36348 11.79493 1460 ft 6 kts 234°
2026-05-04 06:13 48.35934 11.79355 1470 ft 21 kts 162°
2026-05-04 06:14 48.35528 11.79301 1470 ft 3 kts 258°
2026-05-04 06:14 48.35527 11.79290 1471 ft 0 kts 258°
2026-05-04 06:15 48.35526 11.79288 1471 ft 0 kts 259°